This is the latest recevied weather packets stored in our database for station/object WX7FGZ-5. If no packets are shown the sender has not sent any weather packets the latest 10 day(s).
| Time | Temp. | Humidity | Pressure | Rain* | Wind** | Luminosity | Snow |
|---|---|---|---|---|---|---|---|
| 1777602531 | 14.44° C | 19% | 1017.4 hPa | 0 mm | - | 0 W/m² | - |
| 1777602256 | 14.44° C | 18% | 1017.1 hPa | 0 mm | - | 0 W/m² | - |
| 1777602231 | 14.44° C | 18% | 1017.3 hPa | 0 mm | - | 0 W/m² | - |
| 1777601930 | 14.44° C | 18% | 1017.1 hPa | 0 mm | - | 0 W/m² | - |
| 1777601332 | 15° C | 18% | 1017.1 hPa | 0 mm | - | 12 W/m² | - |
| 1777601253 | 15° C | 17% | 1017 hPa | 0 mm | - | 18 W/m² | - |
| 1777601030 | 15° C | 17% | 1017 hPa | 0 mm | - | 18 W/m² | - |
| 1777600559 | 15.56° C | 17% | 1016.8 hPa | 0 mm | - | 47 W/m² | - |
| 1777600501 | 15.56° C | 17% | 1016.8 hPa | 0 mm | - | 30 W/m² | - |
| 1777600183 | 15.56° C | 17% | 1016.8 hPa | 0 mm | - | 47 W/m² | - |
| 1777599884 | 16.11° C | 17% | 1016.8 hPa | 0 mm | - | 65 W/m² | - |
| 1777598984 | 16.67° C | 16% | 1016.9 hPa | 0 mm | - | 123 W/m² | - |
| 1777598684 | 16.67° C | 16% | 1016.6 hPa | 0 mm | - | 142 W/m² | - |
| 1777598388 | 17.22° C | 16% | 1016.5 hPa | 0 mm | - | 167 W/m² | - |
| 1777598132 | 16.67° C | - | - | - | - | - | - |
| 1777598087 | 16.67° C | - | - | - | - | - | - |
| 1777597183 | 17.22° C | 16% | 1016.4 hPa | 0 mm | - | 281 W/m² | - |
| 1777596897 | 17.78° C | 16% | 1016.4 hPa | 0 mm | - | 308 W/m² | - |
| 1777596893 | 17.22° C | 17% | 1016.4 hPa | 0 mm | - | 338 W/m² | - |
| 1777596585 | 17.22° C | 17% | 1016.4 hPa | 0 mm | - | 338 W/m² | - |
| 1777595682 | 17.78° C | 16% | 1016.2 hPa | 0 mm | - | 381 W/m² | - |
| 1777595383 | 17.78° C | 16% | 1016.2 hPa | 0 mm | - | 381 W/m² | - |
| 1777595085 | 18.33° C | 16% | 1016.2 hPa | 0 mm | - | 399 W/m² | - |
| 1777594784 | 18.33° C | 16% | 1016.2 hPa | 0 mm | - | 424 W/m² | - |
| 1777594653 | 18.33° C | 16% | 1016.3 hPa | 0 mm | - | 454 W/m² | - |
* Rain latest hour (hover to see other rain measurements)
** Current wind speed in m/s (hover to see current wind gust speed)